Printer-friendly version

IAU Minor Planet Center

Minor Planet Center

MPEC 2008-B08 : 2008 AN33

The following Minor Planet Electronic Circular may be linked-to from your own Web pages, but must not otherwise be redistributed electronically.


Read MPEC 2008-B07 Read MPEC 2008-B09


M.P.E.C. 2008-B08                                Issued 2008 Jan. 16, 17:46 UT

     The Minor Planet Electronic Circulars contain information on unusual
         minor planets and routine data on comets.  They are published
   on behalf of Commission 20 of the International Astronomical Union by the
          Minor Planet Center, Smithsonian Astrophysical Observatory,
                          Cambridge, MA 02138, U.S.A.

             Prepared using the Tamkin Foundation Computer Network

                              MPC@CFA.HARVARD.EDU
          URL http://www.cfa.harvard.edu/iau/mpc.html  ISSN 1523-6714

                                   2008 AN33

Observations:
     K08A33N* C2008 01 15.45910 13 20 58.23 +16 02 58.8          19.9 V EB008703
     K08A33N  C2008 01 15.46623 13 20 57.84 +16 03 00.6          19.5 V EB008703
     K08A33N  C2008 01 15.47340 13 20 57.40 +16 03 01.0          19.8 V EB008703
     K08A33N  C2008 01 15.48057 13 20 57.12 +16 03 04.3          19.6 V EB008703
     K08A33N  C2008 01 15.50562 13 20 55.48 +16 03 09.8          19.1 R EB008734
     K08A33N  C2008 01 15.50719 13 20 55.39 +16 03 10.1          19.5 R EB008734
     K08A33N  C2008 01 15.50870 13 20 55.28 +16 03 10.4          19.3 R EB008734
     K08A33N  C2008 01 15.51021 13 20 55.24 +16 03 10.9          19.5 R EB008734
     K08A33N  C2008 01 15.51035 13 20 55.45 +16 03 13.4          19.6 V EB008703
     K08A33N  C2008 01 15.51324 13 20 55.06 +16 03 11.8          19.6 R EB008734
     K08A33N  C2008 01 15.51472 13 20 55.24 +16 03 14.1          19.0 V EB008703
     K08A33N  C2008 01 15.51476 13 20 54.95 +16 03 12.3          19.5 R EB008734
     K08A33N  C2008 01 15.51913 13 20 55.00 +16 03 15.8          20.0 V EB008703
     K08A33N  C2008 01 15.52354 13 20 54.71 +16 03 17.0          19.1 V EB008703
     K08A33N  C2008 01 16.15024 13 20 24.21 +16 06 12.8                 EB008J95
     K08A33N  C2008 01 16.15771 13 20 23.82 +16 06 14.4                 EB008J95
     K08A33N  C2008 01 16.16517 13 20 23.45 +16 06 17.3          20.2 R EB008J95
     K08A33N  C2008 01 16.50716 13 20 06.00 +16 08 03.6          19.9 V EB008G96
     K08A33N  C2008 01 16.51060 13 20 05.82 +16 08 04.9          20.0 V EB008G96
     K08A33N  C2008 01 16.51406 13 20 05.60 +16 08 05.6          20.0 V EB008G96
     K08A33N  C2008 01 16.51754 13 20 05.42 +16 08 06.7          19.8 V EB008G96

Observer details:
703 Catalina Sky Survey.  Observer R. A. Kowalski.  Measurers E. C. Beshore,
    A. Boattini, G. J. Garradd, A. R. Gibbs, A. D. Grauer, R. E. Hill,
    R. A. Kowalski, S. M. Larson, R. H. McNaught.  0.68-m Schmidt + CCD.
734 Farpoint Observatory.  Observer G. Hug.  0.7-m reflector + CCD.
G96 Mt. Lemmon Survey.  Observer A. Boattini.  Measurers E. C. Beshore,
    A. Boattini, G. J. Garradd, A. R. Gibbs, A. D. Grauer, R. E. Hill,
    R. A. Kowalski, S. M. Larson, R. H. McNaught.  1.5-m reflector + CCD.
J95 Great Shefford.  Observer P. Birtwhistle.  0.40-m f/6.0 Schmidt-Cassegrain
    + CCD.

Orbital elements:
2008 AN33                                                Earth MOID = 0.0691 AU
Epoch 2007 Oct. 27.0 TT = JDT 2454400.5                 MPC
M 355.43847              (2000.0)            P               Q
n   0.19215977     Peri.   27.25187     +0.45829598     -0.88328927
a   2.9741377      Node    35.71930     +0.78152150     +0.34752943
e   0.7214235      Incl.    9.74488     +0.42330715     +0.31467977
P   5.13           H   18.8           G   0.15           U   9
Residuals in seconds of arc
080115 703  0.2+  0.8+    080115 734  0.5+  0.4-    080116 J95  0.2-  0.1+
080115 703  0.1+  0.5+    080115 703  0.1-  0.3+    080116 J95  0.0   0.6-
080115 703  0.7-  1.2-    080115 734  0.2+  0.4-    080116 J95  0.5+  0.1+
080115 703  0.8+  0.1-    080115 703  0.3+  0.2-    080116 G96  0.0   0.1-
080115 734  0.4+  0.2-    080115 734  0.2-  0.3-    080116 G96  0.3+  0.2+
080115 734  0.3+  0.4-    080115 703  0.3+  0.2+    080116 G96  0.0   0.2-
080115 734  0.1-  0.5-    080115 703  0.4-  0.1+    080116 G96  0.3+  0.1-

Ephemeris:
2008 AN33                a,e,i = 2.97, 0.72, 10                  q = 0.8285
Date    TT    R. A. (2000) Decl.     Delta      r     Elong.  Phase     V
2008 01 15    13 21.32   +16 00.9    0.512    1.191   100.9    54.2    19.7
2008 01 25    13 10.94   +16 57.5    0.539    1.293   112.8    44.6    19.7
2008 02 04    12 55.07   +18 08.2    0.568    1.397   125.9    34.9    19.7
2008 02 14    12 34.37   +19 16.9    0.605    1.500   139.6    25.2    19.8
2008 02 24    12 11.15   +20 03.9    0.659    1.604   152.7    16.5    19.8
2008 03 05    11 48.55   +20 17.3    0.734    1.706   162.0    10.3    19.9
2008 03 15    11 29.33   +19 55.8    0.834    1.806   162.0     9.8    20.3
2008 03 25    11 15.02   +19 06.8    0.957    1.904   154.1    13.2    20.9
2008 04 04    11 05.78   +18 00.0    1.101    2.001   144.4    16.9    21.4
2008 04 14    11 01.08   +16 42.5    1.263    2.095   134.8    19.8    21.9

Sonia Keys                   (C) Copyright 2008 MPC           M.P.E.C. 2008-B08

Read MPEC 2008-B07 Read MPEC 2008-B09


Our Web policy. Index to the CBAT/MPC/ICQ pages.


Valid HTML 4.01!